[[{"header":{"parameterUnit":"m.s-1","parameterCategory":2,"la1":30.2992,"la2":30.254,"lo1":-89.0895,"lo2":-89.0443,"dy":0.0025,"dx":0.0025,"nx":19,"ny":19,"refTime":"2026-05-22T09:00:00:Z","depth":"0","parameterNumber":2,"parameterNumberName":"U-component_of_CURRENTS"},"data":[0,0,0,0.1708,0.1709,0.174,0.174,0.1721,0.1721,0,0,0,0,0,0,0,0,0,0,0,0.1688,0.1688,0.1708,0.1709,0.174,0.174,0.1721,0.1721,0,0,0,0,0,0,0,0,0,0,0,0.1688,0.1688,0.1689,0.1709,0.174,0.174,0.1721,0.171,0,0,0,0,0,0,0,0,0,0,0.1685,0.1678,0.1688,0.1689,0.1709,0.1741,0.174,0.171,0.171,0.1693,0,0.1701,0,0.1718,0.1719,0.1719,0,0,0,0.1698,0.1678,0.1691,0.1689,0.171,0.1741,0.1723,0.171,0.1711,0.1694,0.1701,0.1701,0.1718,0.1719,0.1719,0.1841,0.1842,0,0,0.1697,0.1687,0.1691,0.1692,0.1721,0.1722,0.1724,0.1711,0.1709,0.1701,0.1701,0.1717,0.1719,0.1719,0.1839,0.1841,0,0,0,0.1699,0.1686,0.17,0.1692,0.1707,0.1724,0.1726,0.1709,0.1716,0.1701,0.1717,0.1719,0.1718,0.1838,0.184,0.2041,0,0,0,0.1697,0.1688,0.17,0.1693,0.1708,0.1717,0.1724,0.1716,0.1716,0.1717,0.1719,0.1718,0.1836,0.1839,0.2032,0.2071,0,0,0,0.1686,0.1687,0.1693,0.1693,0.1713,0.1718,0.1724,0.1717,0.1726,0.1719,0.1718,0.1835,0.1838,0.2024,0.2059,0.213,0,0,0,0.1672,0.1691,0.1692,0.1713,0.1713,0.1743,0.1724,0.1732,0.1727,0.1719,0.1836,0.184,0.2022,0.2051,0.2122,0.2131,0.2166,0,0,0.1691,0.1693,0.1705,0.1708,0.1747,0.1738,0.1821,0.1803,0.1787,0.1829,0.1833,0.2035,0.2058,0.2128,0.234,0.2368,0,0,0,0.1708,0.1719,0.1729,0.1751,0.1768,0.1867,0.1838,0.1906,0.2017,0.1806,0.2053,0.2059,0.2097,0.2089,0.2112,0.2145,0.1857,0.1856,0.1856,0.1722,0.1737,0.1778,0.1818,0.1859,0.1941,0.2058,0.2153,0.2084,0.2214,0.224,0.2444,0.2443,0.2459,0.2496,0.2282,0.2283,0.2283,0.2284,0.1766,0.183,0.1847,0.1898,0.2003,0.2087,0.2299,0.2352,0.2541,0.2473,0.2501,0.2321,0.2496,0.2526,0.2297,0.2295,0.2293,0.2292,0.2291,0.1788,0.1853,0.1851,0.1981,0.2117,0.2232,0.2413,0.2563,0.2683,0.2775,0.2678,0.2673,0.2677,0.2762,0.2763,0.2764,0.2764,0.2764,0.2765,0.1884,0.1902,0.1971,0.2105,0.2165,0.2303,0.2497,0.2603,0.278,0.2862,0.2862,0.2769,0.2588,0.2544,0.2774,0.2772,0.2771,0.277,0.2769,0.2045,0.2041,0.2112,0.2153,0.2266,0.2323,0.2462,0.2647,0.2799,0.2897,0.3031,0.2915,0.2828,0.2807,0.2767,0.304,0.304,0.304,0.304,0.2162,0.2178,0.2201,0.221,0.2267,0.231,0.2372,0.2593,0.2943,0.3127,0.3166,0.3097,0.3084,0.3005,0.298,0.294,0.3252,0.3252,0.3252,0.2304,0.2259,0.2256,0.2213,0.2218,0.2236,0.2286,0.2509,0.3039,0.3264,0.3226,0.3217,0.3112,0.3088,0.2949,0.2911,0.2837,0,0]},{"header":{"parameterUnit":"m.s-1","parameterCategory":2,"la1":30.2992,"la2":30.254,"lo1":-89.0895,"lo2":-89.0443,"dy":0.0025,"dx":0.0025,"nx":19,"ny":19,"refTime":"2026-05-22T09:00:00:Z","depth":"0","parameterNumber":3,"parameterNumberName":"V-component_of_CURRENTS"},"data":[0,0,0,-0.0385,-0.0387,-0.0474,-0.0474,-0.0539,-0.0539,0,0,0,0,0,0,0,0,0,0,0,-0.0354,-0.0355,-0.0385,-0.0387,-0.0474,-0.0474,-0.0539,-0.0539,0,0,0,0,0,0,0,0,0,0,0,-0.0354,-0.0354,-0.0355,-0.0387,-0.0474,-0.0474,-0.0539,-0.0485,0,0,0,0,0,0,0,0,0,0,-0.0407,-0.0383,-0.0354,-0.0355,-0.0388,-0.0473,-0.0474,-0.0483,-0.0488,-0.0486,0,-0.05,0,-0.052,-0.0542,-0.0542,0,0,0,-0.0389,-0.0379,-0.0403,-0.0355,-0.0389,-0.0473,-0.0435,-0.0487,-0.0492,-0.0492,-0.0501,-0.0504,-0.0521,-0.0542,-0.0543,-0.0392,-0.039,0,0,-0.0385,-0.0369,-0.0399,-0.0407,-0.0412,-0.0432,-0.0438,-0.0491,-0.0495,-0.0502,-0.0506,-0.0522,-0.0543,-0.0543,-0.0394,-0.0392,0,0,0,-0.0369,-0.0365,-0.0389,-0.0404,-0.0423,-0.0435,-0.0441,-0.0493,-0.0502,-0.0507,-0.0523,-0.0543,-0.0544,-0.0396,-0.0393,-0.0072,0,0,0,-0.0367,-0.0356,-0.0387,-0.0378,-0.0422,-0.0465,-0.0442,-0.0498,-0.0505,-0.0523,-0.0543,-0.0544,-0.0399,-0.0395,-0.0086,0.0119,0,0,0,-0.035,-0.0355,-0.0365,-0.0377,-0.0414,-0.0465,-0.0477,-0.05,-0.0514,-0.0542,-0.0544,-0.04,-0.0395,-0.0098,0.0095,0.0311,0,0,0,-0.033,-0.0341,-0.0365,-0.0378,-0.0413,-0.0424,-0.0477,-0.0503,-0.0524,-0.0543,-0.0398,-0.0393,-0.0101,0.0081,0.0296,0.0287,0.0356,0,0,-0.0329,-0.034,-0.0346,-0.037,-0.0352,-0.0412,-0.0305,-0.0366,-0.0436,-0.0384,-0.0382,-0.0081,0.0094,0.0308,0.0561,0.0622,0,0,0,-0.0336,-0.0324,-0.0334,-0.0324,-0.0348,-0.0204,-0.0301,-0.0231,-0.0121,-0.0426,-0.0075,0.0027,0.0151,0.0113,0.0163,0.0014,-0.0372,-0.0372,-0.0372,-0.0275,-0.0277,-0.0216,-0.0187,-0.0151,-0.0071,0.0094,0.0191,0.001,0.0158,0.0291,0.0685,0.0647,0.0684,0.0532,0.0257,0.0258,0.0259,0.026,-0.0161,-0.0037,-0.0022,0.0055,0.0197,0.0331,0.0563,0.0575,0.0858,0.0638,0.074,0.0457,0.0757,0.0574,0.0281,0.0277,0.0275,0.0273,0.0271,-0.0035,0.0075,0.0083,0.0325,0.0585,0.0715,0.1102,0.1202,0.1203,0.1363,0.1223,0.1214,0.1051,0.1356,0.1358,0.136,0.1362,0.1363,0.1364,0.0217,0.0245,0.0458,0.0675,0.0873,0.1182,0.1469,0.1617,0.1707,0.1636,0.1633,0.1187,0.102,0.0975,0.1394,0.1389,0.1385,0.1382,0.138,0.0624,0.0614,0.088,0.1062,0.1439,0.1665,0.1858,0.2023,0.2164,0.2198,0.1762,0.1766,0.1673,0.1626,0.1594,0.215,0.215,0.215,0.215,0.0965,0.0966,0.1279,0.1508,0.1795,0.1895,0.2122,0.2251,0.2183,0.21,0.2,0.1695,0.167,0.1556,0.1511,0.1467,0.1979,0.1978,0.1977,0.1391,0.1348,0.1593,0.1638,0.1894,0.2012,0.2136,0.2326,0.2195,0.1953,0.1823,0.1831,0.135,0.1322,0.1088,0.1037,0.094,0,0]}],[{"header":{"parameterUnit":"m.s-1","parameterCategory":2,"la1":30.2992,"la2":30.254,"lo1":-89.0895,"lo2":-89.0443,"dy":0.0025,"dx":0.0025,"nx":19,"ny":19,"refTime":"2026-05-22T09:00:00:Z","depth":"2","parameterNumber":2,"parameterNumberName":"U-component_of_CURRENTS"},"data":[0,0,0,0.1583,0.1586,0.1687,0.1687,0.1698,0.1698,0,0,0,0,0,0,0,0,0,0,0,0.1543,0.1544,0.1583,0.1586,0.1687,0.1687,0.1698,0.1698,0,0,0,0,0,0,0,0,0,0,0,0.1543,0.1544,0.1545,0.1586,0.1687,0.1687,0.1698,0.1649,0,0,0,0,0,0,0,0,0,0,0.1565,0.1552,0.1543,0.1545,0.1587,0.1686,0.1687,0.1648,0.1652,0.1621,0,0.1644,0,0.1674,0.1696,0.1696,0,0,0,0.1578,0.1549,0.1574,0.1545,0.1588,0.1686,0.1639,0.1651,0.1656,0.1625,0.1645,0.1646,0.1674,0.1696,0.1696,0.1808,0.1809,0,0,0.1573,0.1559,0.1572,0.1577,0.1622,0.1636,0.1642,0.1655,0.1661,0.1645,0.1647,0.1675,0.1696,0.1696,0.1807,0.1808,0,0,0,0.1562,0.1555,0.1583,0.1576,0.1606,0.1639,0.1646,0.166,0.167,0.1647,0.1675,0.1696,0.1696,0.1805,0.1807,0.1929,0,0,0,0.1558,0.1549,0.158,0.1573,0.1607,0.1652,0.1651,0.1669,0.1672,0.1675,0.1696,0.1696,0.1803,0.1806,0.1922,0.1963,0,0,0,0.1537,0.1547,0.1561,0.1572,0.162,0.1653,0.1664,0.1671,0.1688,0.1696,0.1695,0.1802,0.1806,0.1916,0.1953,0.2026,0,0,0,0.1515,0.1564,0.1561,0.1616,0.1619,0.168,0.1665,0.1696,0.1705,0.1696,0.1804,0.1807,0.1914,0.1947,0.202,0.1877,0.1892,0,0,0.1568,0.157,0.16,0.1601,0.1669,0.1665,0.1761,0.176,0.175,0.1785,0.1789,0.1924,0.1953,0.2025,0.2065,0.2074,0,0,0,0.1611,0.163,0.1649,0.1687,0.1719,0.18,0.1796,0.1845,0.1931,0.1776,0.1957,0.1971,0.2012,0.1915,0.1924,0.1822,0.1822,0.1822,0.1821,0.1655,0.1672,0.1729,0.1766,0.1808,0.1883,0.1971,0.2042,0.1989,0.2082,0.2095,0.2265,0.2165,0.2169,0.2129,0.2129,0.213,0.213,0.2131,0.1721,0.1756,0.1787,0.1849,0.1924,0.1999,0.2154,0.2189,0.2333,0.2273,0.2307,0.2078,0.2185,0.2141,0.2139,0.2137,0.2136,0.2136,0.2135,0.1739,0.1764,0.18,0.1886,0.1998,0.2091,0.2243,0.2347,0.2434,0.2498,0.235,0.2344,0.2311,0.2498,0.2499,0.2499,0.25,0.25,0.25,0.1746,0.1787,0.1837,0.1932,0.199,0.2111,0.2301,0.2401,0.2472,0.2471,0.2469,0.2388,0.2376,0.2332,0.2509,0.2507,0.2506,0.2506,0.2505,0.1773,0.1789,0.1837,0.1889,0.2008,0.2041,0.2239,0.2349,0.2479,0.2488,0.2458,0.2456,0.2395,0.2384,0.2341,0.251,0.251,0.251,0.251,0.1778,0.1797,0.1817,0.1858,0.1933,0.2001,0.197,0.1964,0.2128,0.2113,0.2129,0.199,0.2,0.1908,0.1908,0.1851,0.1892,0.1891,0.189,0.1792,0.1782,0.1771,0.1793,0.1863,0.1888,0.1692,0.1476,0.1598,0.1858,0.1951,0.2482,0.2318,0.2317,0.2202,0.2193,0.2111,0,0]},{"header":{"parameterUnit":"m.s-1","parameterCategory":2,"la1":30.2992,"la2":30.254,"lo1":-89.0895,"lo2":-89.0443,"dy":0.0025,"dx":0.0025,"nx":19,"ny":19,"refTime":"2026-05-22T09:00:00:Z","depth":"2","parameterNumber":3,"parameterNumberName":"V-component_of_CURRENTS"},"data":[0,0,0,-0.0317,-0.0319,-0.0448,-0.0448,-0.0514,-0.0515,0,0,0,0,0,0,0,0,0,0,0,-0.0269,-0.027,-0.0316,-0.0319,-0.0447,-0.0448,-0.0514,-0.0515,0,0,0,0,0,0,0,0,0,0,0,-0.0269,-0.027,-0.0271,-0.032,-0.0447,-0.0448,-0.0514,-0.0443,0,0,0,0,0,0,0,0,0,0,-0.0331,-0.0307,-0.027,-0.0271,-0.0321,-0.0447,-0.0448,-0.044,-0.0447,-0.0427,0,-0.0448,0,-0.048,-0.0516,-0.0517,0,0,0,-0.0323,-0.0301,-0.0329,-0.0271,-0.0322,-0.0447,-0.0391,-0.0445,-0.0452,-0.0435,-0.0449,-0.0453,-0.0481,-0.0517,-0.0517,-0.0404,-0.0403,0,0,-0.0316,-0.0298,-0.0324,-0.0333,-0.0354,-0.0387,-0.0395,-0.0451,-0.0459,-0.045,-0.0455,-0.0482,-0.0517,-0.0517,-0.0406,-0.0404,0,0,0,-0.0293,-0.0293,-0.0322,-0.0329,-0.036,-0.039,-0.04,-0.0457,-0.0465,-0.0456,-0.0483,-0.0517,-0.0517,-0.0407,-0.0405,-0.0295,0,0,0,-0.0289,-0.028,-0.0319,-0.031,-0.0359,-0.0425,-0.0405,-0.0461,-0.0469,-0.0483,-0.0517,-0.0518,-0.0409,-0.0406,-0.0302,-0.0229,0,0,0,-0.0264,-0.0277,-0.0291,-0.0309,-0.0362,-0.0426,-0.0438,-0.0465,-0.0485,-0.0517,-0.0518,-0.041,-0.0407,-0.0308,-0.024,-0.022,0,0,0,-0.0243,-0.0267,-0.029,-0.0319,-0.0361,-0.0385,-0.0439,-0.0473,-0.0497,-0.0517,-0.0409,-0.0405,-0.0309,-0.0246,-0.0226,-0.0289,-0.0269,0,0,-0.0258,-0.0268,-0.0282,-0.0306,-0.0304,-0.0368,-0.033,-0.0393,-0.0427,-0.0389,-0.0387,-0.03,-0.024,-0.0222,-0.0091,-0.0078,0,0,0,-0.0276,-0.0268,-0.0281,-0.0283,-0.0312,-0.0262,-0.0329,-0.0323,-0.0289,-0.0426,-0.0261,-0.0225,-0.0219,-0.0266,-0.0254,-0.0389,-0.039,-0.039,-0.039,-0.0239,-0.0239,-0.0206,-0.0185,-0.019,-0.0185,-0.0149,-0.0129,-0.0206,-0.0145,-0.0108,0.0026,-0.0019,-0.0012,-0.009,-0.0089,-0.0089,-0.0088,-0.0088,-0.0163,-0.0108,-0.0086,-0.0048,0.0002,0.0045,0.0081,0.0058,0.0115,0.0054,0.0052,-0.0111,0.0007,-0.0079,-0.008,-0.0082,-0.0083,-0.0083,-0.0084,-0.0071,-0.0035,-0.0003,0.0092,0.0189,0.0205,0.0288,0.0291,0.0245,0.0269,0.0142,0.0138,0.0056,0.0233,0.0233,0.0234,0.0234,0.0234,0.0235,0.0024,0.0065,0.0136,0.0229,0.0281,0.0358,0.0411,0.0402,0.0342,0.0286,0.0283,0.0134,0.0123,0.0075,0.0242,0.024,0.0239,0.0239,0.0238,0.0131,0.0139,0.021,0.0266,0.0376,0.045,0.0485,0.0446,0.0425,0.0377,0.027,0.0267,0.0216,0.0204,0.0158,0.0336,0.0336,0.0336,0.0336,0.0193,0.0208,0.0249,0.0291,0.0371,0.0465,0.0542,0.0555,0.0453,0.0382,0.0381,0.0306,0.03,0.0248,0.0235,0.0188,0.0374,0.0375,0.0375,0.0258,0.0227,0.0238,0.0249,0.0332,0.0443,0.0593,0.0701,0.05,0.0382,0.0446,0.0327,0.0207,0.0202,0.0106,0.0093,0.0009,0,0]}],[{"header":{"parameterUnit":"m.s-1","parameterCategory":2,"la1":30.2992,"la2":30.254,"lo1":-89.0895,"lo2":-89.0443,"dy":0.0025,"dx":0.0025,"nx":19,"ny":19,"refTime":"2026-05-22T09:00:00:Z","depth":"4","parameterNumber":2,"parameterNumberName":"U-component_of_CURRENTS"},"data":[0,0,0,0.0292,0.0292,0.0344,0.0344,0.0706,0.0709,0,0,0,0,0,0,0,0,0,0,0,0.0292,0.0292,0.0292,0.0292,0.0343,0.0344,0.0705,0.0709,0,0,0,0,0,0,0,0,0,0,0,0.0293,0.0292,0.0292,0.0291,0.0343,0.0344,0.0704,0.0601,0,0,0,0,0,0,0,0,0,0,0.0518,0.0443,0.0292,0.0292,0.0291,0.0343,0.0344,0.0594,0.0608,0.0754,0,0.0741,0,0.0716,0.0737,0.0738,0,0,0,0.0332,0.043,0.0454,0.0292,0.0291,0.0343,0.0331,0.06,0.0616,0.0774,0.0745,0.0756,0.0722,0.0739,0.0741,0.1154,0.1156,0,0,0.0329,0.0309,0.0441,0.0463,0.0286,0.0329,0.0332,0.0607,0.0619,0.0746,0.0763,0.0728,0.0742,0.0745,0.1153,0.1155,0,0,0,0.0293,0.0307,0.0318,0.0451,0.0427,0.033,0.0334,0.0606,0.0611,0.0766,0.0732,0.0744,0.0749,0.1151,0.1154,0.1174,0,0,0,0.0294,0.0283,0.0316,0.0307,0.0418,0.047,0.0327,0.0593,0.0621,0.0731,0.0744,0.0753,0.115,0.1152,0.117,0.1141,0,0,0,0.0293,0.0283,0.0283,0.0305,0.0307,0.0463,0.0484,0.0597,0.0601,0.0738,0.0754,0.1149,0.1152,0.1167,0.1137,0.1123,0,0,0,0.0282,0.0259,0.0283,0.0278,0.0306,0.0441,0.0481,0.0654,0.0785,0.0746,0.115,0.1153,0.1165,0.1135,0.1121,0.0915,0,0,0,0.0244,0.0254,0.0259,0.0281,0.0387,0.0437,0.0586,0.079,0.0882,0.1084,0.1092,0.1172,0.1137,0.1122,0.1127,0,0,0,0,0.0244,0.0264,0.0304,0.0362,0.0464,0.0601,0.0762,0.085,0.1067,0.0959,0.1238,0.1216,0.1204,0.1085,0.1171,0.117,0.117,0.1169,0.1169,0.0197,0.0266,0.0351,0.0476,0.0566,0.077,0.0879,0.1039,0.1149,0.1265,0.1283,0.1352,0.1237,0.1362,0.1362,0.1363,0.1363,0.1363,0.1363,0.0218,0.0295,0.041,0.0534,0.0702,0.0859,0.1058,0.1155,0.1296,0.1366,0.1354,0.1181,0.1367,0.1366,0.1365,0.1365,0.1365,0.1364,0.1364,0.0225,0.0286,0.0395,0.0564,0.0764,0.0949,0.1064,0.1228,0.1332,0.1341,0.1229,0.1355,0.1291,0.1371,0.1371,0.1371,0.1371,0.1371,0.1371,0.0214,0.0325,0.0407,0.0604,0.0696,0.0881,0.1111,0.1144,0.126,0.1216,0.1368,0.1354,0.1354,0.1293,0.1368,0.1369,0.1369,0.1369,0.1369,0.0206,0.0266,0.0318,0.0402,0.0591,0.0696,0.0956,0.1029,0.1027,0.0975,0.1127,0.114,0.1093,0.1098,0.1026,0.1025,0.1022,0.102,0,0.017,0.0213,0.0237,0.0253,0.0337,0.0556,0.0607,0.0707,0.0797,0.079,0.0926,0.1092,0.1103,0.1044,0.1045,0.0956,0,0,0,0.0124,0.0132,0.0081,0.0126,0.0201,0.0383,0.0617,0.0618,0.0851,0.0778,0.0958,0.0974,0.1119,0.1362,0.1319,0.1319,0.1218,0,0]},{"header":{"parameterUnit":"m.s-1","parameterCategory":2,"la1":30.2992,"la2":30.254,"lo1":-89.0895,"lo2":-89.0443,"dy":0.0025,"dx":0.0025,"nx":19,"ny":19,"refTime":"2026-05-22T09:00:00:Z","depth":"4","parameterNumber":3,"parameterNumberName":"V-component_of_CURRENTS"},"data":[0,0,0,0.0494,0.0496,0.064,0.064,0.0667,0.0666,0,0,0,0,0,0,0,0,0,0,0,0.0456,0.0457,0.0493,0.0497,0.064,0.064,0.0667,0.0666,0,0,0,0,0,0,0,0,0,0,0,0.0455,0.0457,0.0458,0.0497,0.064,0.0641,0.0667,0.0599,0,0,0,0,0,0,0,0,0,0,0.048,0.0478,0.0456,0.0458,0.0498,0.0639,0.0641,0.0598,0.0603,0.0555,0,0.0591,0,0.0617,0.0664,0.0664,0,0,0,0.0503,0.0474,0.0497,0.0459,0.0499,0.0639,0.0577,0.0602,0.0608,0.0561,0.0591,0.0593,0.0618,0.0664,0.0664,0.0491,0.049,0,0,0.0495,0.049,0.0493,0.0501,0.055,0.0572,0.0581,0.0608,0.0624,0.0591,0.0594,0.0618,0.0664,0.0663,0.0493,0.0491,0,0,0,0.0468,0.0485,0.0512,0.0499,0.0531,0.0576,0.0587,0.0624,0.063,0.0595,0.0618,0.0663,0.0663,0.0495,0.0492,0.0471,0,0,0,0.0464,0.0468,0.0508,0.0508,0.0532,0.0603,0.0602,0.0629,0.0633,0.0618,0.0663,0.0663,0.0496,0.0493,0.0475,0.0437,0,0,0,0.0447,0.0466,0.0485,0.0507,0.0563,0.0604,0.0614,0.0631,0.0645,0.0664,0.0662,0.0498,0.0494,0.0479,0.0443,0.0415,0,0,0,0.0433,0.0505,0.0485,0.0573,0.0562,0.0642,0.0614,0.0669,0.0691,0.0663,0.0496,0.0492,0.0481,0.0448,0.0418,0.0555,0,0,0,0.0517,0.0515,0.0566,0.0552,0.0638,0.0622,0.0621,0.0628,0.0595,0.0482,0.048,0.0474,0.0444,0.0415,0.0325,0,0,0,0,0.0588,0.061,0.0648,0.0681,0.0719,0.0644,0.0655,0.0589,0.0475,0.0587,0.0401,0.038,0.0365,0.0451,0.0473,0.0474,0.0475,0.0475,0.0475,0.0651,0.066,0.0698,0.0687,0.0705,0.0643,0.0562,0.043,0.0458,0.035,0.0311,0.0196,0.0279,0.0265,0.0265,0.0265,0.0265,0.0265,0.0265,0.0673,0.0639,0.0632,0.0663,0.0576,0.0533,0.0373,0.0328,0.0169,0.0185,0.0174,0.0355,0.0261,0.0262,0.0262,0.0263,0.0263,0.0263,0.0263,0.0628,0.0591,0.0616,0.056,0.0476,0.0404,0.0302,0.0182,0.0111,0.007,0.0188,0.0157,0.0221,0.0096,0.0096,0.0096,0.0095,0.0095,0.0095,0.0513,0.0529,0.0493,0.0444,0.0419,0.035,0.0243,0.0214,0.0132,0.0127,0.0072,0.0138,0.0144,0.0207,0.009,0.0091,0.0091,0.0092,0.0092,0.0359,0.039,0.0393,0.0383,0.037,0.0338,0.0273,0.0261,0.0219,0.019,0.016,0.0158,0.0177,0.0181,0.0249,0.0139,0.014,0.0141,0,0.0219,0.0239,0.0338,0.0421,0.0424,0.0388,0.0404,0.0393,0.0272,0.0254,0.0209,0.0177,0.0176,0.0202,0.0208,0.0288,0,0,0,0.0038,0.0179,0.0273,0.0493,0.0525,0.049,0.0434,0.0431,0.0263,0.0305,0.0175,0.0166,0.0242,0.0074,0.0098,0.0105,0.0208,0,0]}]]